Location: Kikino
(54.4440°N, 112.0940°W)
Time: 18:00:15
(UTC+00:00)

A-11 Canister half - Pass Details

Date: 27 May 2024
Orbit: 1525 x 1683 km, 47.3° (Epoch: 12 June)

Event Time Altitude Azimuth Distance (km) Brightness Sun altitude
Rises 11:27:44 0° 281° (W) 4,805 11.2 1.8°
Reaches altitude 10° 11:35:20 10° 243° (WSW) 3,863 10.5 2.7°
Maximum altitude 11:36:17 10° 237° (WSW) 3,854 10.5 2.8°
Drops below altitude 10° 11:37:15 10° 231° (SW) 3,873 10.5 2.9°
Sets 11:45:02 0° 194° (SSW) 4,895 11.2 3.9°
